Regional Weather Roundup
Issued by NWS

Home | Current Version | Previous Version | Text Only | Print | Product List | Glossary On
Versions: 1 2 3 4 5 6 7 8 9 10 11 12 13 14 15 16 17 18 19 20 21 22 23 24 25 26 27 28 29 30 31 32 33 34 35 36 37 38 39 40 41 42 43 44 45 46 47 48 49 50
339
ASUS43 KLSX 242057
RWRMO

WEATHER SUMMARY FOR MISSOURI
NATIONAL WEATHER SERVICE SPRINGFIELD MO
400 PM CDT MON JUL 24 2017

NOTE: "FAIR" INDICATES FEW OR NO CLOUDS BELOW 12,000 FEET WITH NO
       SIGNIFICANT WEATHER AND/OR OBSTRUCTIONS TO VISIBILITY.
       CURRENT SKY AND/OR WEATHER CONDITIONS ARE NOT AVAILABLE FOR
       CHILLICOTHE AND FARMINGTON.

MOZ001>031-035>038-043-044-053-054-242200-
...NORTHERN AND WESTERN MISSOURI...

CITY           SKY/WX    TMP DP  RH WIND       PRES   REMARKS
KANSAS CTY INT FAIR      87  66  49 E5        29.99F
LEE`S SUMMIT   FAIR      85  68  56 E8        29.99F
ST JOSEPH      FAIR      88  67  49 VRB6      29.98F HX  91
CHILLICOTHE      N/A     85  65  51 E7        30.01S

$$
MOZ066>068-077>081-088>096-101>105-242200-
...SOUTHWEST MISSOURI...

CITY           SKY/WX    TMP DP  RH WIND       PRES   REMARKS
SPRINGFIELD    FAIR      93  70  46 W7        29.97S HX  99
JOPLIN         FAIR      96  71  44 VRB5      29.96F HX 103
BRANSON        MOSUNNY   93  66  40 S3        29.98F HX  96

$$
MOZ032>034-039>042-045>050-055>058-069>072-242200-
...CENTRAL MISSOURI...

CITY           SKY/WX    TMP DP  RH WIND       PRES   REMARKS
COLUMBIA       NOT AVBL
JEFFERSON CITY FAIR      87  68  52 CALM      29.96F HX  90
ROLLA          FAIR      89  65  44 VRB3      29.97F HX  91
SEDALIA        FAIR      87  70  56 N5        30.00F HX  92
WARRENSBURG    FAIR      84  64  51 E6        29.99S

$$
MOZ051-052-059>065-242200-
...EAST CENTRAL MISSOURI...

CITY           SKY/WX    TMP DP  RH WIND       PRES   REMARKS
ST LOUIS INTL  FAIR      90  65  43 N12       29.97S HX  92

$$
MOZ072>076-082>087-097>100-106>115-242200-
...SOUTH CENTRAL AND SOUTHEAST MISSOURI...

CITY           SKY/WX    TMP DP  RH WIND       PRES   REMARKS
CAPE GIRARDEAU FAIR      92  69  47 SW7       29.91F HX  97
POPLAR BLUFF   FAIR      91  73  55 VRB3      29.91F HX  99
WEST PLAINS    PTSUNNY   92  65  40 SE9       29.97F HX  94

$$



USA.gov is the U.S. government's official web portal to all federal, state and local government web resources and services.